STARLINK-32510, 62040

Orbit data source: Space-Track

STARLINK-32510, 62040 is a payload satellite owned by SpaceX/Seattle (US) in LEO that was launched on Thu, 21 Nov 2024 UTC via an FALCON 9 launch vehicle from the Air Force Eastern Test Range (AFETR). Payload-class satellites include a variety of spacecraft equipped with specific instruments for various scientific and technological missions. These include communications satellites like Starlink; space stations such as the ISS; scientific satellites like the Hubble; Earth observation satellites from companies like Planet Labs, Umbra, and HawkEye 360; GPS; miniature CubeSats for education and research; and military/defense satellites.

Loading next visibility...
Identifier
62040, 2024-216J
Orbit
LEO
Country
Flag of USUS
Related business
Manufacturer
SpaceX/Seattle
Mission
Operational Commercial Communications
Bus & Motor
STARLINK V2M, Unknown motor
Mass
730 kg wet, ~700 kg dry
Launch date (UTC)
2024-11-21 (1 year ago)
Launch vehicle
FALCON 9
Launch site
Air Force Eastern Test Range (AFETR)
Object type
Payload
Rocket body
Debris
Shape & HBR
Box + 2 Pan, 17.7 m
Radar Cross Section
33.884 m², Large (>1 m²)

Expand to show TLE details & history
Last TLE update: 17 hours ago

TLE from 17 hours ago
0 STARLINK-32510
1 62040U 24216J   25340.54731026  .00062157  00000-0  22457-2 0  9992
2 62040  42.9973  69.8708 0001228 271.8036  88.2675 15.27632378 59549
Epoch: 2025-12-06T13:08Z
TLE epoch observation values (Epoch: 2025-12-06T13:08:07.606Z)
Latitude
-0.00002°
Longitude
157.26561°
Altitude
482.642 km
Speed
7.626 km/s
True Right ascension
04h 39m 28s
True Declination
0° 00' 00"
Sunlit
Object was in full shadow at epoch
Visualization orbit readout
Latitude
Unknown
Longitude
Unknown
Altitude
Unknown
Speed
Unknown
Apparent Right ascension
Unknown
Apparent Declination
Unknown
Sunlit
N/A
Visualization observer readout
Local Sidereal Time
03:44:39
Azimuth
Unknown
Elevation
Unknown
Doppler factor
Unknown
Orbital elements
Apogee altitude
485.681 km
Perigee altitude
483.995 km
Semi-major axis
6,862.975 km
Eccentricity
0.00012
Inclination
42.9973°
RAAN
69.8708°
Arg. of periapsis
271.8036°
True anomaly
88.28157°
Mean anomaly
88.2675°
Eccentric anomaly
88.27453°
Mean motion
3.81746 °/min
Orbital period
94.3 mins
BSTAR
0.0022457
Loading maneuver chart data...
Computing Atmospheric mass density...
Loading historical data...
Loading historical data...
Loading historical data...
Loading historical data...
Loading historical data...
Loading historical data...
Loading historical data...

Documentation

Showing up to 5 results
|